Location: LDNL
(36.4545°S, 141.6685°E)
Time: 21:31:31
(UTC+11:00)

A-11 Canister half - All Passes

Search period start: 30 January 2023 00:00
Search period end: 09 February 2023 00:00
Orbit: 1525 x 1683 km, 47.3° (Epoch: 29 January)

Date Brightness Start Highest point End Pass type
(mag) Time Alt. Az. Time Alt. Az. Time Alt. Az.
30 Jan - 00:48:24 10° WSW 00:58:07 51° SSE 01:07:30 10° E visible
30 Jan - 02:53:59 10° WSW 03:03:54 81° NW 03:13:25 10° NE visible
30 Jan - 05:00:42 10° WSW 05:07:50 24° NW 05:14:49 10° N visible
30 Jan - 18:10:14 10° N 18:18:47 32° NE 18:27:19 10° ESE daylight
30 Jan - 20:12:56 10° NW 20:23:12 88° SSW 20:33:21 10° ESE daylight
30 Jan - 22:19:35 10° W 22:29:21 48° SSW 22:38:54 10° ESE visible
31 Jan - 00:26:36 10° WSW 00:36:19 50° SSE 00:45:43 10° E visible
31 Jan - 02:32:14 10° WSW 02:42:12 84° NW 02:51:45 10° NE visible
31 Jan - 04:38:47 10° WSW 04:46:13 26° NW 04:53:28 10° N visible
31 Jan - 17:48:46 10° N 17:57:07 30° NE 18:05:27 10° ESE daylight
31 Jan - 19:51:13 10° NW 20:01:27 90° NE 20:11:38 10° ESE daylight
31 Jan - 21:57:44 10° W 22:07:32 49° SSW 22:17:09 10° ESE visible
01 Feb - 00:04:48 10° WSW 00:14:32 49° SSE 00:23:55 10° E visible
01 Feb - 02:10:29 10° WSW 02:20:29 88° NW 02:30:04 10° NE visible
01 Feb - 04:16:52 10° WSW 04:24:35 27° NW 04:32:06 10° N visible
01 Feb - 17:27:20 10° N 17:35:27 28° NE 17:43:35 10° ESE daylight
01 Feb - 19:29:29 10° NW 19:39:43 87° NE 19:49:54 10° ESE daylight
01 Feb - 21:35:54 10° W 21:45:44 50° SSW 21:55:24 10° ESE visible
01 Feb - 23:43:00 10° WSW 23:52:44 48° SSE 00:02:08 10° E visible
02 Feb - 01:48:44 10° WSW 01:58:47 89° SE 02:08:24 10° NE visible
02 Feb - 03:55:00 10° WSW 04:02:57 29° NW 04:10:41 10° N visible
02 Feb - 17:05:55 10° N 17:13:47 26° NE 17:21:41 10° ESE daylight
02 Feb - 19:07:45 10° NW 19:17:58 83° NE 19:28:10 10° ESE daylight
02 Feb - 21:14:03 10° W 21:23:55 51° SSW 21:33:38 10° ESE visible
02 Feb - 23:21:12 10° WSW 23:30:55 48° S 23:40:20 10° E visible
03 Feb - 01:26:58 10° WSW 01:37:03 86° SSE 01:46:42 10° ENE visible
03 Feb - 03:33:08 10° WSW 03:41:19 31° NW 03:49:16 10° N visible
03 Feb - 16:44:31 10° N 16:52:08 25° NE 16:59:47 10° ESE daylight
03 Feb - 18:46:04 10° NW 18:56:14 80° NE 19:06:25 10° ESE daylight
03 Feb - 20:52:12 10° W 21:02:07 52° SSW 21:11:53 10° ESE visible
03 Feb - 22:59:23 10° WSW 23:09:06 47° S 23:18:32 10° E visible
04 Feb - 01:05:14 10° WSW 01:15:19 84° SSE 01:25:01 10° ENE visible
04 Feb - 03:11:16 10° WSW 03:19:41 33° NW 03:27:49 10° N visible
04 Feb - 16:23:09 10° N 16:30:29 23° NE 16:37:50 10° ESE daylight
04 Feb - 18:24:21 10° NW 18:34:31 77° NE 18:44:41 10° ESE daylight
04 Feb - 20:30:22 10° W 20:40:18 53° SSW 20:50:08 10° ESE daylight
04 Feb - 22:37:34 10° WSW 22:47:18 47° S 22:56:44 10° E visible
05 Feb - 00:43:28 10° WSW 00:53:35 81° SSE 01:03:18 10° ENE visible
05 Feb - 02:49:25 10° WSW 02:58:01 35° NW 03:06:22 10° NNE visible
05 Feb - 16:01:50 10° N 16:08:50 21° NE 16:15:51 10° E daylight
05 Feb - 18:02:40 10° NW 18:12:47 74° NE 18:22:56 10° ESE daylight
05 Feb - 20:08:33 10° W 20:18:30 54° SSW 20:28:22 10° ESE daylight
05 Feb - 22:15:46 10° WSW 22:25:29 46° S 22:34:57 10° E visible
06 Feb - 00:21:43 10° WSW 00:31:51 78° SSE 00:41:35 10° ENE visible
06 Feb - 02:27:34 10° WSW 02:36:23 38° NW 02:44:54 10° NNE visible
06 Feb - 15:40:33 10° NNE 15:47:11 20° NE 15:53:51 10° E daylight
06 Feb - 17:41:00 10° NW 17:51:03 71° NE 18:01:12 10° ESE daylight
06 Feb - 19:46:43 10° W 19:56:42 55° SSW 20:06:37 10° ESE daylight
06 Feb - 21:53:57 10° WSW 22:03:40 46° S 22:13:08 10° ESE visible
06 Feb - 23:59:57 10° WSW 00:10:06 75° SSE 00:19:51 10° ENE visible
07 Feb - 02:05:45 10° WSW 02:14:44 40° NW 02:23:23 10° NNE visible
07 Feb - 15:19:18 10° NNE 15:25:32 18° ENE 15:31:49 10° E daylight
07 Feb - 17:19:19 10° NW 17:29:20 68° NE 17:39:26 10° ESE daylight
07 Feb - 19:24:53 10° W 19:34:54 57° SSW 19:44:52 10° ESE daylight
07 Feb - 21:32:08 10° WSW 21:41:50 46° S 21:51:21 10° ESE visible
07 Feb - 23:38:12 10° WSW 23:48:21 73° SSE 23:58:07 10° ENE visible
08 Feb - 01:43:56 10° WSW 01:53:04 42° NW 02:01:53 10° NNE visible
08 Feb - 14:58:07 10° NNE 15:03:53 17° ENE 15:09:43 10° E daylight
08 Feb - 16:57:40 10° NW 17:07:37 65° NE 17:17:41 10° ESE daylight
08 Feb - 19:03:03 10° W 19:13:06 58° SSW 19:23:07 10° ESE daylight
08 Feb - 21:10:18 10° WSW 21:20:01 46° S 21:29:32 10° ESE visible
08 Feb - 23:16:26 10° WSW 23:26:36 71° SSE 23:36:22 10° ENE visible
